SM2GSR-2 Weather Reports


time (UTC)temp
F
wind
direction
speed
knots
gust
knots
rain 1hr
in
rain 24hr
in
rain mn
in
humidity
%
barometer
mb
20260509073004 53 166 1.7 6.1 0.00 0.00 0.00 48 1014.5
20260509071504 52 161 4.3 10.4 0.00 0.00 0.00 49 1014.5
20260509071003 52 187 0.9 6.1 0.00 0.00 0.00 50 1014.6
20260509070503 51 145 0.9 6.1 0.00 0.00 0.00 49 1014.6
20260509065503 51 136 3.5 7.0 0.00 0.00 0.00 50 1014.6
20260509065004 51 136 0.0 0.0 0.00 0.00 0.00 51 1014.7
20260509063503 50 163 4.3 8.7 0.00 0.00 0.00 50 1014.8
20260509063004 50 157 0.9 7.8 0.00 0.00 0.00 50 1014.8
20260509062503 50 152 2.6 7.8 0.00 0.00 0.00 51 1014.8
20260509062004 50 151 0.0 4.3 0.00 0.00 0.00 52 1014.8
20260509061504 49 141 1.7 5.2 0.00 0.00 0.00 52 1014.8
20260509061004 49 111 0.0 0.0 0.00 0.00 0.00 53 1014.9
20260509060504 48 111 1.7 5.2 0.00 0.00 0.00 54 1014.9
20260509060004 48 130 1.7 6.1 0.00 0.00 0.00 53 1014.8
20260509055003 47 137 1.7 5.2 0.00 0.00 0.00 55 1014.8
20260509054504 47 126 0.9 5.2 0.00 0.00 0.00 56 1014.9
20260509054003 46 157 4.3 7.0 0.00 0.00 0.00 56 1014.9
20260509053004 45 160 1.7 5.2 0.00 0.00 0.00 57 1015.0
20260509052004 44 155 1.7 5.2 0.00 0.00 0.00 58 1015.1
20260509051004 43 158 1.7 4.3 0.00 0.00 0.00 59 1015.2
20260509050504 43 159 2.6 7.0 0.00 0.00 0.00 60 1015.2
20260509050004 43 135 0.9 4.3 0.00 0.00 0.00 60 1015.2
20260509045004 42 137 0.0 0.0 0.00 0.00 0.00 61 1015.3
20260509044504 42 136 0.0 5.2 0.00 0.00 0.00 61 1015.4
20260509044004 42 142 0.9 4.3 0.00 0.00 0.00 62 1015.4
20260509043504 42 143 2.6 5.2 0.00 0.00 0.00 62 1015.4
20260509042504 41 164 0.0 0.0 0.00 0.00 0.00 63 1015.5
20260509042004 41 164 0.0 0.0 0.00 0.00 0.00 63 1015.5
20260509041504 40 164 0.0 0.0 0.00 0.00 0.00 63 1015.5
20260509041003 40 164 0.0 0.9 0.00 0.00 0.00 64 1015.5
20260509040503 40 164 0.0 0.0 0.00 0.00 0.00 64 1015.4
20260509040003 40 164 0.0 0.0 0.00 0.00 0.00 64 1015.6
20260509035504 39 164 0.0 0.0 0.00 0.00 0.00 64 1015.5
20260509034504 38 164 0.9 4.3 0.00 0.00 0.00 66 1015.5
20260509034004 37 165 0.0 0.0 0.00 0.00 0.00 67 1015.6
20260509033504 37 165 0.0 0.0 0.00 0.00 0.00 71 1015.6
20260509033004 36 165 0.0 0.0 0.00 0.00 0.00 72 1015.6
20260509032504 36 165 0.0 0.0 0.00 0.00 0.00 71 1015.6
20260509032004 36 165 0.0 0.0 0.00 0.00 0.00 72 1015.7
20260509031004 35 165 0.0 0.0 0.00 0.00 0.00 72 1015.8
20260509030504 35 165 0.0 0.0 0.00 0.00 0.00 72 1015.8
20260509030004 35 165 0.0 0.0 0.00 0.00 0.00 72 1015.8
20260509025504 35 165 0.0 0.0 0.00 0.00 0.00 71 1015.8
20260509025004 35 165 0.0 0.0 0.00 0.00 0.00 70 1015.8
20260509024504 35 165 0.0 0.0 0.00 0.00 0.00 70 1015.8
20260509024004 35 165 0.0 0.0 0.00 0.00 0.00 71 1015.9
20260509023504 35 165 0.0 0.0 0.00 0.00 0.00 70 1015.9
20260509023004 35 165 0.0 0.0 0.00 0.00 0.00 69 1015.9
20260509022004 35 165 0.0 0.0 0.00 0.00 0.00 67 1015.9
20260509021504 36 165 0.0 0.0 0.00 0.00 0.00 66 1016.0
20260509021004 36 165 0.0 0.0 0.00 0.00 0.00 66 1016.0
20260509020504 36 165 0.0 0.0 0.00 0.00 0.00 66 1016.1
20260509020004 36 165 0.0 0.0 0.00 0.00 0.00 65 1016.1
20260509015503 36 165 0.0 0.0 0.00 0.00 0.00 66 1016.1
20260509015004 36 165 0.0 0.0 0.00 0.00 0.00 66 1016.1
20260509014504 35 165 0.0 0.0 0.00 0.00 0.00 67 1016.2
20260509014004 35 165 0.0 0.0 0.00 0.00 0.00 67 1016.1
20260509013003 35 165 0.0 0.0 0.00 0.00 0.00 67 1016.2
20260509012503 36 165 0.0 0.0 0.00 0.00 0.00 66 1016.3
20260509012004 36 165 0.0 0.0 0.00 0.00 0.00 65 1016.3
20260509011504 36 165 0.0 0.0 0.00 0.00 0.00 63 1016.4
20260509011004 37 165 0.0 0.0 0.00 0.00 0.00 63 1016.3
20260509010504 37 165 0.0 0.0 0.00 0.00 0.00 62 1016.4
20260509010004 37 165 0.0 0.0 0.00 0.00 0.00 62 1016.4
20260509005504 37 167 0.0 0.0 0.00 0.00 0.00 63 1016.4
20260509005004 37 167 0.0 0.0 0.00 0.00 0.00 63 1016.5
20260509004504 37 167 0.0 0.0 0.00 0.00 0.00 62 1016.5
20260509004004 37 167 0.0 0.0 0.00 0.00 0.00 62 1016.5
20260509003503 37 167 0.0 0.0 0.00 0.00 0.00 62 1016.5
20260509003004 37 167 0.0 0.0 0.00 0.00 0.00 62 1016.5
20260509002503 37 167 0.0 0.0 0.00 0.00 0.00 62 1016.5
20260509002004 37 167 0.0 0.0 0.00 0.00 0.00 62 1016.6
20260509001504 37 167 0.0 0.0 0.00 0.00 0.00 61 1016.6
20260509001003 37 167 0.0 0.0 0.00 0.00 0.00 61 1016.7
20260509000004 37 168 0.0 4.3 0.00 0.00 0.00 61 1016.8
20260508235504 37 180 0.0 0.0 0.00 0.00 0.00 62 1016.8
20260508235005 37 180 0.0 0.0 0.00 0.00 0.00 62 1016.8
20260508234005 37 180 0.0 2.6 0.00 0.00 0.00 62 1016.9
20260508233504 37 180 0.0 0.0 0.00 0.00 0.00 63 1016.8
20260508233005 38 180 0.0 0.0 0.00 0.00 0.00 62 1016.7
20260508232504 37 180 0.0 0.0 0.00 0.00 0.00 63 1016.7
20260508232004 37 180 0.0 0.0 0.00 0.00 0.00 64 1016.8
20260508231504 38 180 0.0 0.0 0.00 0.00 0.00 65 1016.9
20260508231004 38 180 0.0 0.0 0.00 0.00 0.00 64 1016.9
20260508230504 38 180 0.0 0.0 0.00 0.00 0.00 63 1016.9
20260508230004 37 180 0.0 0.0 0.00 0.00 0.00 64 1017.0
20260508225504 37 181 0.0 0.0 0.00 0.00 0.00 66 1017.0
20260508225004 37 181 0.0 0.0 0.00 0.00 0.00 65 1017.0
20260508224503 38 181 0.0 0.0 0.00 0.00 0.00 64 1017.1
20260508223503 39 181 0.0 0.0 0.00 0.00 0.00 62 1017.2
20260508223004 39 181 0.0 0.0 0.00 0.00 0.00 61 1017.2
20260508222503 40 181 0.0 0.0 0.00 0.00 0.00 60 1017.3
20260508222004 40 181 0.0 0.0 0.00 0.00 0.00 58 1017.4
20260508221004 41 181 0.0 0.0 0.00 0.00 0.00 57 1017.5
20260508220505 41 181 0.0 0.0 0.00 0.00 0.00 57 1017.5
20260508215504 41 182 0.0 0.0 0.00 0.00 0.00 56 1017.4
20260508214504 41 182 0.0 0.0 0.00 0.00 0.00 56 1017.4
20260508214003 41 182 0.0 0.0 0.00 0.00 0.00 56 1017.5
20260508213504 41 182 0.0 0.0 0.00 0.00 0.00 56 1017.4
20260508213004 42 182 0.0 0.0 0.00 0.00 0.00 55 1017.4
20260508212504 42 182 0.0 2.6 0.00 0.00 0.00 54 1017.5
20260508212004 42 184 0.0 0.9 0.00 0.00 0.00 53 1017.5
20260508211503 43 171 0.0 0.0 0.00 0.00 0.00 53 1017.4
20260508211004 43 173 0.0 4.3 0.00 0.00 0.00 52 1017.5
20260508210504 43 173 0.0 0.0 0.00 0.00 0.00 52 1017.5
20260508205504 44 178 0.0 5.2 0.00 0.00 0.00 51 1017.6
20260508205003 44 153 0.0 6.1 0.00 0.00 0.00 51 1017.6
20260508204004 44 182 0.9 5.2 0.00 0.00 0.00 50 1017.5
20260508203504 44 167 0.0 6.1 0.00 0.00 0.00 50 1017.5
20260508203004 44 150 0.0 0.0 0.00 0.00 0.00 49 1017.5
20260508202503 44 150 0.0 0.0 0.00 0.00 0.00 48 1017.4
20260508202004 45 150 0.0 0.0 0.00 0.00 0.00 48 1017.4
20260508201004 45 150 0.0 0.0 0.00 0.00 0.00 46 1017.3
20260508200504 46 149 0.0 2.6 0.00 0.00 0.00 45 1017.4
20260508200004 46 148 0.0 0.0 0.00 0.00 0.00 44 1017.4
20260508195504 46 147 0.0 0.0 0.00 0.00 0.00 44 1017.3
20260508195004 47 147 0.0 0.0 0.00 0.00 0.00 44 1017.3
20260508194504 47 147 0.0 0.0 0.00 0.00 0.00 43 1017.3
20260508194004 47 147 0.0 4.3 0.00 0.00 0.00 43 1017.2
20260508193003 47 147 0.0 0.0 0.00 0.00 0.00 43 1017.2
20260508192004 48 146 0.9 7.0 0.00 0.00 0.00 43 1017.1
20260508191504 49 140 0.0 0.0 0.00 0.00 0.00 42 1017.1
20260508191003 49 146 0.0 0.0 0.00 0.00 0.00 41 1017.1
20260508190504 49 155 0.0 5.2 0.00 0.00 0.00 41 1017.0
20260508190004 50 143 0.0 7.0 0.00 0.00 0.00 41 1017.0
20260508185504 50 140 0.9 5.2 0.00 0.00 0.00 40 1017.0
20260508185004 50 144 2.6 8.7 0.00 0.00 0.00 40 1016.9
20260508184504 50 164 0.9 7.0 0.00 0.00 0.00 40 1016.9
20260508183004 51 161 0.9 6.1 0.00 0.00 0.00 38 1016.8
20260508182504 51 167 0.9 6.1 0.00 0.00 0.00 38 1016.9
20260508182004 52 160 0.0 5.2 0.00 0.00 0.00 37 1016.8
20260508181503 52 157 2.6 7.8 0.00 0.00 0.00 37 1016.8
20260508180503 53 177 4.3 12.2 0.00 0.00 0.00 36 1016.7
20260508180004 53 174 0.0 2.6 0.00 0.00 0.00 35 1016.7
20260508175004 54 190 0.0 6.1 0.00 0.00 0.00 33 1016.7
20260508174503 54 178 2.6 7.0 0.00 0.00 0.00 33 1016.7
20260508174003 54 181 0.9 5.2 0.00 0.00 0.00 32 1016.6
20260508173504 55 160 0.9 5.2 0.00 0.00 0.00 33 1016.6
20260508173004 55 150 0.0 5.2 0.00 0.00 0.00 32 1016.5
20260508172004 55 156 2.6 7.0 0.00 0.00 0.00 32 1016.5
20260508171504 55 184 0.0 0.0 0.00 0.00 0.00 33 1016.4
20260508171003 55 184 0.0 0.0 0.00 0.00 0.00 32 1016.5
20260508170505 55 185 0.0 0.0 0.00 0.00 0.00 32 1016.4
20260508170004 55 190 0.0 0.0 0.00 0.00 0.00 32 1016.5
20260508165504 55 200 0.9 4.3 0.00 0.00 0.00 31 1016.5
20260508165004 56 200 0.9 4.3 0.00 0.00 0.00 31 1016.4
20260508164004 56 191 0.0 0.9 0.00 0.00 0.00 31 1016.5
20260508163504 56 180 0.9 8.7 0.00 0.00 0.00 31 1016.5
20260508162503 56 203 0.0 4.3 0.00 0.00 0.00 31 1016.5
20260508162004 56 229 0.0 6.1 0.00 0.00 0.00 31 1016.5
20260508161504 56 238 0.9 5.2 0.00 0.00 0.00 30 1016.5
20260508161004 56 226 1.7 5.2 0.00 0.00 0.00 30 1016.5
20260508160504 56 261 1.7 5.2 0.00 0.00 0.00 30 1016.4
20260508160004 56 264 1.7 6.1 0.00 0.00 0.00 31 1016.4
20260508155003 55 298 0.0 2.6 0.00 0.00 0.00 31 1016.4
20260508154504 55 202 0.0 0.0 0.00 0.00 0.00 31 1016.4
20260508153504 55 173 0.0 0.0 0.00 0.00 0.00 31 1016.4
20260508152004 55 181 0.0 5.2 0.00 0.00 0.00 30 1016.5
20260508151504 55 199 0.9 6.1 0.00 0.00 0.00 30 1016.5
20260508150503 56 173 0.0 4.3 0.00 0.00 0.00 30 1016.6
20260508145504 55 175 0.0 0.0 0.00 0.00 0.00 30 1016.6
20260508144504 55 236 0.0 0.0 0.00 0.00 0.00 30 1016.8
20260508144004 56 240 0.9 4.3 0.00 0.00 0.00 29 1016.8
20260508143004 56 216 0.0 5.2 0.00 0.00 0.00 29 1016.8
20260508142504 57 253 0.9 5.2 0.00 0.00 0.00 28 1016.8
20260508141504 57 179 0.9 7.8 0.00 0.00 0.00 29 1016.8
20260508141004 57 246 0.0 5.2 0.00 0.00 0.00 29 1016.8
20260508140004 56 198 0.0 5.2 0.00 0.00 0.00 30 1016.8
20260508135004 56 182 0.9 6.1 0.00 0.00 0.00 30 1017.0
20260508134504 56 220 0.0 2.6 0.00 0.00 0.00 31 1016.9
20260508134005 55 165 0.0 5.2 0.00 0.00 0.00 30 1017.0
20260508133503 56 215 0.9 7.0 0.00 0.00 0.00 31 1017.1
20260508133004 56 199 0.0 2.6 0.00 0.00 0.00 30 1017.0
20260508132504 55 222 0.0 0.0 0.00 0.00 0.00 32 1017.1
20260508131004 55 214 0.0 7.8 0.00 0.00 0.00 31 1017.3
20260508130504 56 188 4.3 8.7 0.00 0.00 0.00 30 1017.3
20260508130004 56 159 0.0 2.6 0.00 0.00 0.00 31 1017.3
20260508125503 56 206 0.0 2.6 0.00 0.00 0.00 31 1017.4
20260508125004 56 227 0.9 7.8 0.00 0.00 0.00 31 1017.4
20260508124504 56 228 0.9 8.7 0.00 0.00 0.00 30 1017.4
20260508123504 55 194 1.7 12.2 0.00 0.00 0.00 31 1017.3
20260508123004 55 204 1.7 8.7 0.00 0.00 0.00 31 1017.3
20260508122503 53 206 0.0 5.2 0.00 0.00 0.00 32 1017.4
20260508122004 53 205 0.9 6.1 0.00 0.00 0.00 31 1017.4
20260508121504 54 189 0.9 7.0 0.00 0.00 0.00 30 1017.4
20260508121004 55 189 0.9 7.8 0.00 0.00 0.00 29 1017.4
20260508120504 56 260 2.6 10.4 0.00 0.00 0.00 29 1017.5
20260508120003 56 198 0.0 7.0 0.00 0.00 0.00 30 1017.4
20260508115503 56 158 0.9 7.0 0.00 0.00 0.00 30 1017.4
20260508115004 56 151 0.0 8.7 0.00 0.00 0.00 30 1017.5
20260508114504 56 198 0.0 2.6 0.00 0.00 0.00 30 1017.5
20260508114004 55 178 0.0 0.0 0.00 0.00 0.00 31 1017.5
20260508113504 55 166 0.0 2.6 0.00 0.00 0.00 31 1017.6
20260508112503 54 204 1.7 6.1 0.00 0.00 0.00 32 1017.7
20260508112003 53 316 0.0 4.3 0.00 0.00 0.00 32 1017.7
20260508111504 53 302 0.9 5.2 0.00 0.00 0.00 32 1017.8
20260508111004 53 215 0.0 0.0 0.00 0.00 0.00 32 1017.8
20260508110504 53 221 0.0 5.2 0.00 0.00 0.00 33 1017.8
20260508110004 53 272 0.0 4.3 0.00 0.00 0.00 33 1017.8
20260508104504 53 302 0.9 6.1 0.00 0.00 0.00 33 1017.9
20260508103504 52 257 0.9 5.2 0.00 0.00 0.00 34 1017.9
20260508103004 52 202 0.0 7.0 0.00 0.00 0.00 34 1018.0
20260508102503 52 207 2.6 10.4 0.00 0.00 0.00 32 1018.1
20260508102004 52 179 1.7 7.0 0.00 0.00 0.00 33 1018.1
20260508101504 52 253 0.0 7.8 0.00 0.00 0.00 33 1018.1
20260508101003 52 280 0.9 7.0 0.00 0.00 0.00 34 1018.1
20260508100504 52 202 0.0 6.1 0.00 0.00 0.00 34 1018.1
20260508093504 51 273 0.0 6.1 0.00 0.00 0.00 34 1018.2
20260508093004 51 208 2.6 8.7 0.00 0.00 0.00 34 1018.3
20260508092004 50 247 0.9 7.8 0.00 0.00 0.00 34 1018.3
20260508091504 50 295 0.9 4.3 0.00 0.00 0.00 34 1018.3
20260508091004 50 297 0.9 6.1 0.00 0.00 0.00 34 1018.4
20260508090505 50 186 0.0 6.1 0.00 0.00 0.00 34 1018.4
20260508090004 49 202 1.7 7.8 0.00 0.00 0.00 37 1018.4
20260508085503 49 289 0.0 5.2 0.00 0.00 0.00 36 1018.4
20260508085004 49 223 1.7 6.1 0.00 0.00 0.00 36 1018.5
20260508084504 49 251 1.7 6.1 0.00 0.01 0.00 38 1018.5
20260508084003 48 214 0.9 2.6 0.00 0.01 0.00 36 1018.5
20260508083504 48 221 2.6 7.0 0.00 0.01 0.00 37 1018.5
20260508082003 47 282 1.7 8.7 0.00 0.01 0.00 40 1018.5
20260508081004 47 305 1.7 5.2 0.00 0.01 0.00 40 1018.5
20260508080504 47 219 0.0 7.0 0.00 0.01 0.00 45 1018.5
20260508080004 46 241 0.0 1.7 0.00 0.01 0.00 46 1018.5
20260508075503 46 273 2.6 7.8 0.00 0.01 0.00 46 1018.4
20260508075003 46 222 1.7 8.7 0.00 0.01 0.00 48 1018.4
20260508074504 46 214 0.9 6.1 0.00 0.01 0.00 47 1018.5
20260508074004 46 297 0.9 4.3 0.00 0.01 0.00 49 1018.4
20260508073504 45 229 1.7 7.8 0.00 0.01 0.00 50 1018.4